Time,TemperatureF,DewpointF,PressureIn,WindDirection,WindDirectionDegrees,WindSpeedMPH,WindSpeedGustMPH,Humidity,HourlyPrecipIn,Conditions,Clouds,dailyrainin,SoftwareType,DateUTC
2013-03-26 09:21:00,30.8,28.4,29.88,NNW,336,1.1,1.1,90,-99.99,,,-99.99,VWS V14.01,2013-03-26 13:21:00,
2013-03-26 09:22:00,30.9,28.5,29.88,NNW,336,0.0,0.0,91,-99.99,,,-99.99,VWS V14.01,2013-03-26 13:22:00,
2013-03-26 09:27:00,30.8,28.6,29.88,WNW,295,0.0,0.0,91,-99.99,,,-99.99,VWS V14.01,2013-03-26 13:27:00,
2013-03-26 09:32:00,30.8,28.8,29.88,NW,315,0.0,0.0,92,-99.99,,,-99.99,VWS V14.01,2013-03-26 13:32:00,
2013-03-26 09:37:00,30.9,29.0,29.88,NNW,329,4.9,5.5,92,-99.99,,,-99.99,VWS V14.01,2013-03-26 13:37:00,
2013-03-26 09:42:00,30.9,29.0,29.88,West,278,4.6,5.0,93,-99.99,,,-99.99,VWS V14.01,2013-03-26 13:42:00,
2013-03-26 09:47:00,31.1,29.3,29.88,NW,305,0.0,0.0,93,-99.99,,,-99.99,VWS V14.01,2013-03-26 13:47:00,
2013-03-26 09:52:00,31.2,29.5,29.89,NW,305,0.0,0.0,93,-99.99,,,-99.99,VWS V14.01,2013-03-26 13:52:00,
2013-03-26 09:57:00,31.4,29.6,29.89,NW,305,0.0,0.0,93,-99.99,,,-99.99,VWS V14.01,2013-03-26 13:57:00,
2013-03-26 10:02:00,31.5,29.5,29.89,NW,316,0.0,0.0,92,-99.99,,,-99.99,VWS V14.01,2013-03-26 14:02:00,
2013-03-26 10:07:00,31.7,29.6,29.89,NW,316,0.0,0.0,92,-99.99,,,-99.99,VWS V14.01,2013-03-26 14:07:00,
2013-03-26 10:12:00,31.9,29.8,29.89,NW,316,0.0,0.0,92,-99.99,,,-99.99,VWS V14.01,2013-03-26 14:12:00,
2013-03-26 10:17:00,32.2,30.0,29.89,NW,316,0.0,0.0,92,-99.99,,,-99.99,VWS V14.01,2013-03-26 14:17:00,
2013-03-26 10:22:00,32.4,30.1,29.89,NW,316,0.0,0.0,91,-99.99,,,-99.99,VWS V14.01,2013-03-26 14:22:00,
2013-03-26 10:27:00,32.5,29.8,29.90,NW,316,0.0,0.0,90,-99.99,,,-99.99,VWS V14.01,2013-03-26 14:27:00,
2013-03-26 10:32:00,32.5,29.6,29.90,NW,316,0.0,0.0,89,-99.99,,,-99.99,VWS V14.01,2013-03-26 14:32:00,
2013-03-26 10:37:00,32.7,29.6,29.90,NW,316,0.0,0.0,88,-99.99,,,-99.99,VWS V14.01,2013-03-26 14:37:00,
2013-03-26 10:42:00,32.8,29.8,29.90,NW,316,0.0,0.0,88,-99.99,,,-99.99,VWS V14.01,2013-03-26 14:42:00,
2013-03-26 10:47:00,33.0,29.8,29.90,NNE,22,0.0,0.0,88,-99.99,,,-99.99,VWS V14.01,2013-03-26 14:47:00,
2013-03-26 10:52:00,33.1,29.7,29.90,NNE,22,0.0,0.0,87,-99.99,,,-99.99,VWS V14.01,2013-03-26 14:52:00,
2013-03-26 10:57:00,33.2,29.5,29.90,NNE,22,0.0,0.0,86,-99.99,,,-99.99,VWS V14.01,2013-03-26 14:57:00,
2013-03-26 11:02:00,33.2,29.1,29.90,South,169,0.0,0.0,85,-99.99,,,-99.99,VWS V14.01,2013-03-26 15:02:00,
2013-03-26 11:07:00,33.3,29.2,29.91,South,169,0.0,0.0,85,-99.99,,,-99.99,VWS V14.01,2013-03-26 15:07:00,
2013-03-26 11:12:00,33.3,28.9,29.91,WNW,300,0.0,0.0,84,-99.99,,,-99.99,VWS V14.01,2013-03-26 15:12:00,
2013-03-26 11:17:00,33.3,28.5,29.91,WNW,288,0.0,0.0,82,-99.99,,,-99.99,VWS V14.01,2013-03-26 15:17:00,
2013-03-26 11:22:00,33.5,28.8,29.91,WNW,288,0.0,0.0,83,-99.99,,,-99.99,VWS V14.01,2013-03-26 15:22:00,
2013-03-26 11:27:00,33.8,29.1,29.91,WNW,288,0.0,0.0,83,-99.99,,,-99.99,VWS V14.01,2013-03-26 15:27:00,
2013-03-26 11:32:00,34.2,29.6,29.91,WNW,288,0.0,0.0,83,-99.99,,,-99.99,VWS V14.01,2013-03-26 15:32:00,
2013-03-26 11:37:00,34.4,29.6,29.91,WNW,288,0.0,0.0,82,-99.99,,,-99.99,VWS V14.01,2013-03-26 15:37:00,
2013-03-26 11:42:00,34.5,29.5,29.91,WNW,302,0.0,0.0,82,-99.99,,,-99.99,VWS V14.01,2013-03-26 15:42:00,
2013-03-26 11:47:00,34.7,29.8,29.91,WNW,302,0.0,0.0,82,-99.99,,,-99.99,VWS V14.01,2013-03-26 15:47:00,
2013-03-26 11:52:00,34.8,29.8,29.91,WNW,302,0.0,0.0,82,-99.99,,,-99.99,VWS V14.01,2013-03-26 15:52:00,
2013-03-26 11:57:00,34.9,29.9,29.91,WNW,302,0.0,0.0,82,-99.99,,,-99.99,VWS V14.01,2013-03-26 15:57:00,
2013-03-26 12:02:00,34.9,29.7,29.91,NW,304,0.0,0.0,81,-99.99,,,-99.99,VWS V14.01,2013-03-26 16:02:00,
2013-03-26 12:07:00,35.1,30.0,29.91,NW,304,0.0,0.0,81,-99.99,,,-99.99,VWS V14.01,2013-03-26 16:07:00,
2013-03-26 12:12:00,35.0,29.3,29.91,NNE,14,0.0,2.9,79,-99.99,,,-99.99,VWS V14.01,2013-03-26 16:12:00,
2013-03-26 12:17:00,35.1,29.6,29.91,NNE,14,0.0,0.0,80,-99.99,,,-99.99,VWS V14.01,2013-03-26 16:17:00,
2013-03-26 12:22:00,35.2,29.9,29.91,NNE,14,0.0,0.0,81,-99.99,,,-99.99,VWS V14.01,2013-03-26 16:22:00,
2013-03-26 12:27:00,35.3,29.9,29.91,NNE,14,0.0,0.0,80,-99.99,,,-99.99,VWS V14.01,2013-03-26 16:27:00,
2013-03-26 12:32:00,35.4,29.9,29.91,NW,326,0.0,7.6,80,-99.99,,,-99.99,VWS V14.01,2013-03-26 16:32:00,
2013-03-26 12:37:00,35.3,29.8,29.91,NW,311,4.3,5.1,80,-99.99,,,-99.99,VWS V14.01,2013-03-26 16:37:00,
2013-03-26 12:42:00,35.4,30.0,29.91,WSW,248,4.8,8.3,81,-99.99,,,-99.99,VWS V14.01,2013-03-26 16:42:00,
2013-03-26 12:47:00,35.3,29.6,29.91,West,271,0.0,0.0,80,-99.99,,,-99.99,VWS V14.01,2013-03-26 16:47:00,
2013-03-26 12:52:00,35.5,30.2,29.91,NNW,329,4.9,5.5,81,-99.99,,,-99.99,VWS V14.01,2013-03-26 16:52:00,
2013-03-26 12:57:00,35.6,29.8,29.91,WSW,243,0.0,0.0,79,-99.99,,,-99.99,VWS V14.01,2013-03-26 16:57:00,
2013-03-26 13:02:00,35.9,30.2,29.91,NW,311,0.0,0.0,80,-99.99,,,-99.99,VWS V14.01,2013-03-26 17:02:00,
2013-03-26 13:07:00,36.2,30.1,29.91,NW,311,0.0,0.0,78,-99.99,,,-99.99,VWS V14.01,2013-03-26 17:07:00,
2013-03-26 13:12:00,36.3,30.2,29.91,NW,311,0.0,0.0,78,-99.99,,,-99.99,VWS V14.01,2013-03-26 17:12:00,
2013-03-26 13:17:00,36.5,30.2,29.91,NW,314,5.5,8.0,78,-99.99,,,-99.99,VWS V14.01,2013-03-26 17:17:00,
2013-03-26 13:22:00,36.6,29.9,29.91,WNW,290,0.0,0.0,76,-99.99,,,-99.99,VWS V14.01,2013-03-26 17:22:00,
2013-03-26 13:27:00,36.8,29.9,29.91,WNW,295,0.0,0.0,76,-99.99,,,-99.99,VWS V14.01,2013-03-26 17:27:00,
2013-03-26 13:32:00,37.0,29.6,29.91,NW,323,0.0,0.0,74,-99.99,,,-99.99,VWS V14.01,2013-03-26 17:32:00,
2013-03-26 13:37:00,37.1,29.4,29.91,NW,326,6.5,6.5,74,-99.99,,,-99.99,VWS V14.01,2013-03-26 17:37:00,
2013-03-26 13:42:00,37.3,29.6,29.91,NNW,338,0.0,3.0,74,-99.99,,,-99.99,VWS V14.01,2013-03-26 17:42:00,
2013-03-26 13:47:00,37.2,29.0,29.91,SW,215,4.7,4.7,72,-99.99,,,-99.99,VWS V14.01,2013-03-26 17:47:00,
2013-03-26 13:52:00,37.3,29.4,29.91,NNW,330,7.0,7.0,73,-99.99,,,-99.99,VWS V14.01,2013-03-26 17:52:00,
2013-03-26 13:57:00,37.5,29.3,29.91,SSW,208,0.0,0.0,72,-99.99,,,-99.99,VWS V14.01,2013-03-26 17:57:00,
2013-03-26 14:02:00,37.6,29.4,29.91,NNW,342,0.0,0.0,72,-99.99,,,-99.99,VWS V14.01,2013-03-26 18:02:00,
2013-03-26 14:07:00,37.6,28.9,29.91,North,8,7.1,9.1,71,-99.99,,,-99.99,VWS V14.01,2013-03-26 18:07:00,
2013-03-26 14:12:00,37.8,29.2,29.90,WSW,249,0.0,0.0,71,-99.99,,,-99.99,VWS V14.01,2013-03-26 18:12:00,
2013-03-26 14:17:00,37.8,28.7,29.91,NW,323,3.3,6.7,70,-99.99,,,-99.99,VWS V14.01,2013-03-26 18:17:00,
2013-03-26 14:22:00,37.9,28.5,29.90,SSW,193,7.0,9.3,69,-99.99,,,-99.99,VWS V14.01,2013-03-26 18:22:00,
2013-03-26 14:27:00,38.0,28.3,29.91,West,259,4.3,6.1,68,-99.99,,,-99.99,VWS V14.01,2013-03-26 18:27:00,
2013-03-26 14:32:00,38.1,28.3,29.91,WNW,290,5.6,5.6,68,-99.99,,,-99.99,VWS V14.01,2013-03-26 18:32:00,
2013-03-26 14:37:00,38.2,28.5,29.90,South,181,4.5,4.5,68,-99.99,,,-99.99,VWS V14.01,2013-03-26 18:37:00,
2013-03-26 14:42:00,38.7,29.0,29.90,North,352,0.0,0.0,68,-99.99,,,-99.99,VWS V14.01,2013-03-26 18:42:00,
2013-03-26 14:47:00,38.9,28.1,29.90,WNW,297,0.0,0.0,65,-99.99,,,-99.99,VWS V14.01,2013-03-26 18:47:00,
2013-03-26 14:52:00,39.1,28.1,29.90,NW,315,5.5,7.3,64,-99.99,,,-99.99,VWS V14.01,2013-03-26 18:52:00,
2013-03-26 14:57:00,39.5,28.8,29.91,SW,229,4.3,8.7,65,-99.99,,,-99.99,VWS V14.01,2013-03-26 18:57:00,
2013-03-26 15:02:00,39.7,27.8,29.90,West,260,7.3,8.6,62,-99.99,,,-99.99,VWS V14.01,2013-03-26 19:02:00,
2013-03-26 15:07:00,39.8,28.1,29.90,NNW,345,5.4,8.7,63,-99.99,,,-99.99,VWS V14.01,2013-03-26 19:07:00,
2013-03-26 15:12:00,40.1,28.3,29.90,NNW,330,4.3,4.3,62,-99.99,,,-99.99,VWS V14.01,2013-03-26 19:12:00,
2013-03-26 15:17:00,40.2,28.0,29.90,NW,314,6.6,8.5,61,-99.99,,,-99.99,VWS V14.01,2013-03-26 19:17:00,
2013-03-26 15:22:00,40.4,28.1,29.90,NNW,332,6.2,8.5,61,-99.99,,,-99.99,VWS V14.01,2013-03-26 19:22:00,
2013-03-26 15:27:00,40.5,27.8,29.90,NW,326,4.4,9.5,60,-99.99,,,-99.99,VWS V14.01,2013-03-26 19:27:00,
2013-03-26 15:32:00,40.9,28.7,29.91,West,267,0.0,0.0,62,-99.99,,,-99.99,VWS V14.01,2013-03-26 19:32:00,
2013-03-26 15:37:00,40.8,28.5,29.90,WSW,250,4.5,4.7,61,-99.99,,,-99.99,VWS V14.01,2013-03-26 19:37:00,
2013-03-26 15:42:00,40.4,27.8,29.90,NNW,345,8.5,11.7,60,-99.99,,,-99.99,VWS V14.01,2013-03-26 19:42:00,
2013-03-26 15:47:00,39.6,27.5,29.91,NNW,328,9.8,10.6,62,-99.99,,,-99.99,VWS V14.01,2013-03-26 19:47:00,
2013-03-26 15:52:00,39.4,27.5,29.91,West,276,0.0,0.0,62,-99.99,,,-99.99,VWS V14.01,2013-03-26 19:52:00,
2013-03-26 15:57:00,39.4,27.5,29.91,North,359,0.0,0.0,62,-99.99,,,-99.99,VWS V14.01,2013-03-26 19:57:00,
2013-03-26 16:02:00,39.6,27.8,29.91,West,281,3.5,10.1,62,-99.99,,,-99.99,VWS V14.01,2013-03-26 20:02:00,
2013-03-26 16:07:00,39.8,27.1,29.91,NNW,343,5.7,8.6,60,-99.99,,,-99.99,VWS V14.01,2013-03-26 20:07:00,
2013-03-26 16:13:00,39.9,27.6,29.91,West,277,0.0,0.0,61,-99.99,,,-99.99,VWS V14.01,2013-03-26 20:13:00,
2013-03-26 16:18:00,40.2,28.0,29.91,NW,319,0.0,0.0,61,-99.99,,,-99.99,VWS V14.01,2013-03-26 20:18:00,
2013-03-26 16:22:00,40.4,27.4,29.91,West,276,0.0,0.0,60,-99.99,,,-99.99,VWS V14.01,2013-03-26 20:22:00,
2013-03-26 16:27:00,40.5,27.0,29.91,West,274,8.7,9.5,58,-99.99,,,-99.99,VWS V14.01,2013-03-26 20:27:00,
2013-03-26 16:32:00,40.7,27.0,29.91,WSW,238,8.7,8.7,58,-99.99,,,-99.99,VWS V14.01,2013-03-26 20:32:00,
2013-03-26 16:37:00,40.3,26.5,29.92,NW,325,7.1,12.8,57,-99.99,,,-99.99,VWS V14.01,2013-03-26 20:37:00,
2013-03-26 16:42:00,40.4,26.8,29.91,WNW,295,3.0,8.0,58,-99.99,,,-99.99,VWS V14.01,2013-03-26 20:42:00,
2013-03-26 16:47:00,40.4,26.7,29.92,West,263,4.7,7.8,58,-99.99,,,-99.99,VWS V14.01,2013-03-26 20:47:00,
2013-03-26 16:52:00,40.4,26.5,29.92,SSW,198,7.3,8.5,57,-99.99,,,-99.99,VWS V14.01,2013-03-26 20:52:00,
2013-03-26 16:57:00,40.4,27.4,29.92,West,269,0.0,3.0,60,-99.99,,,-99.99,VWS V14.01,2013-03-26 20:57:00,
2013-03-26 17:02:00,40.2,27.0,29.92,SSW,207,0.0,7.0,59,-99.99,,,-99.99,VWS V14.01,2013-03-26 21:02:00,
2013-03-26 17:07:00,40.0,28.2,29.92,NW,321,3.5,6.5,62,-99.99,,,-99.99,VWS V14.01,2013-03-26 21:07:00,
2013-03-26 17:12:00,39.5,28.9,29.93,North,1,0.0,7.7,65,-99.99,,,-99.99,VWS V14.01,2013-03-26 21:12:00,
2013-03-26 17:17:00,38.8,29.0,29.93,North,359,0.0,0.0,68,-99.99,,,-99.99,VWS V14.01,2013-03-26 21:17:00,
2013-03-26 17:22:00,38.3,29.2,29.93,North,359,0.0,0.0,69,-99.99,,,-99.99,VWS V14.01,2013-03-26 21:22:00,
2013-03-26 17:27:00,38.1,29.5,29.93,North,359,0.0,0.0,71,-99.99,,,-99.99,VWS V14.01,2013-03-26 21:27:00,
2013-03-26 17:32:00,37.9,29.5,29.94,North,359,0.0,0.0,71,-99.99,,,-99.99,VWS V14.01,2013-03-26 21:32:00,
2013-03-26 17:37:00,37.7,29.7,29.94,North,359,0.0,0.0,73,-99.99,,,-99.99,VWS V14.01,2013-03-26 21:37:00,
2013-03-26 17:42:00,37.6,29.8,29.94,NW,315,0.0,0.0,73,-99.99,,,-99.99,VWS V14.01,2013-03-26 21:42:00,
2013-03-26 17:47:00,37.4,29.9,29.94,WNW,298,0.0,0.0,74,-99.99,,,-99.99,VWS V14.01,2013-03-26 21:47:00,
2013-03-26 17:52:00,37.0,30.1,29.95,WNW,290,3.2,6.8,76,-99.99,,,-99.99,VWS V14.01,2013-03-26 21:52:00,
2013-03-26 17:57:00,36.2,30.3,29.95,SW,226,0.0,2.7,79,-99.99,,,-99.99,VWS V14.01,2013-03-26 21:57:00,
2013-03-26 18:02:00,35.7,30.8,29.95,West,271,9.4,10.9,82,-99.99,,,-99.99,VWS V14.01,2013-03-26 22:02:00,
2013-03-26 18:07:00,35.0,31.2,29.96,WNW,300,4.2,7.5,86,-99.99,,,-99.99,VWS V14.01,2013-03-26 22:07:00,
2013-03-26 18:12:00,34.4,31.3,29.96,SW,215,2.0,3.3,88,-99.99,,,-99.99,VWS V14.01,2013-03-26 22:12:00,
2013-03-26 18:17:00,33.8,31.4,29.96,WNW,283,0.0,0.0,91,-99.99,,,-99.99,VWS V14.01,2013-03-26 22:17:00,
2013-03-26 18:22:00,33.4,31.2,29.96,WSW,250,0.0,0.0,92,-99.99,,,-99.99,VWS V14.01,2013-03-26 22:22:00,
2013-03-26 18:27:00,33.3,31.3,29.96,WSW,250,0.0,0.0,92,-99.99,,,-99.99,VWS V14.01,2013-03-26 22:27:00,
2013-03-26 18:32:00,33.2,31.4,29.96,WSW,250,0.0,0.0,93,-99.99,,,-99.99,VWS V14.01,2013-03-26 22:32:00,
2013-03-26 18:37:00,33.3,31.6,29.96,WSW,250,0.0,0.0,93,-99.99,,,-99.99,VWS V14.01,2013-03-26 22:37:00,
2013-03-26 18:42:00,33.5,31.7,29.96,WSW,250,0.0,0.0,93,-99.99,,,-99.99,VWS V14.01,2013-03-26 22:42:00,
2013-03-26 18:47:00,33.6,31.5,29.96,WSW,250,0.0,0.0,92,-99.99,,,-99.99,VWS V14.01,2013-03-26 22:47:00,
2013-03-26 18:52:00,33.6,30.9,29.96,West,263,0.0,0.0,90,-99.99,,,-99.99,VWS V14.01,2013-03-26 22:52:00,
2013-03-26 18:57:00,33.9,30.9,29.96,NNW,336,0.0,6.6,88,-99.99,,,-99.99,VWS V14.01,2013-03-26 22:57:00,
2013-03-26 19:02:00,34.0,30.5,29.96,West,266,0.0,3.4,87,-99.99,,,-99.99,VWS V14.01,2013-03-26 23:02:00,
2013-03-26 19:07:00,34.2,30.5,29.96,NW,307,3.0,6.2,86,-99.99,,,-99.99,VWS V14.01,2013-03-26 23:07:00,
2013-03-26 19:12:00,34.3,30.6,29.97,WNW,288,0.0,0.0,86,-99.99,,,-99.99,VWS V14.01,2013-03-26 23:12:00,
2013-03-26 19:17:00,34.4,30.5,29.97,NE,38,0.0,4.2,85,-99.99,,,-99.99,VWS V14.01,2013-03-26 23:17:00,
2013-03-26 19:22:00,34.4,30.0,29.97,NW,311,0.0,4.8,84,-99.99,,,-99.99,VWS V14.01,2013-03-26 23:22:00,
2013-03-26 19:27:00,34.4,29.7,29.97,West,269,0.0,6.1,83,-99.99,,,-99.99,VWS V14.01,2013-03-26 23:27:00,
2013-03-26 19:32:00,34.6,29.9,29.97,West,276,0.0,0.0,83,-99.99,,,-99.99,VWS V14.01,2013-03-26 23:32:00,
2013-03-26 19:37:00,34.6,29.7,29.97,WNW,294,0.0,6.5,82,-99.99,,,-99.99,VWS V14.01,2013-03-26 23:37:00,
2013-03-26 19:42:00,34.6,29.7,29.97,NNW,333,5.2,6.3,82,-99.99,,,-99.99,VWS V14.01,2013-03-26 23:42:00,
2013-03-26 19:47:00,34.6,29.5,29.97,NNW,347,5.4,10.4,81,-99.99,,,-99.99,VWS V14.01,2013-03-26 23:47:00,
2013-03-26 19:53:00,34.8,29.7,29.98,West,273,0.0,4.3,81,-99.99,,,-99.99,VWS V14.01,2013-03-26 23:53:00,
2013-03-26 19:57:00,34.9,29.7,29.98,WNW,298,0.0,6.4,81,-99.99,,,-99.99,VWS V14.01,2013-03-26 23:57:00,
2013-03-26 20:02:00,34.9,29.8,29.99,WNW,292,0.0,5.5,81,-99.99,,,-99.99,VWS V14.01,2013-03-27 00:02:00,
2013-03-26 20:07:00,35.0,30.0,29.99,WNW,283,6.1,6.2,82,-99.99,,,-99.99,VWS V14.01,2013-03-27 00:07:00,
2013-03-26 20:12:00,35.0,30.0,29.99,NW,321,4.8,4.8,82,-99.99,,,-99.99,VWS V14.01,2013-03-27 00:12:00,
2013-03-26 20:17:00,35.0,29.9,29.99,West,267,0.0,0.0,81,-99.99,,,-99.99,VWS V14.01,2013-03-27 00:17:00,
2013-03-26 20:22:00,35.1,30.0,29.99,North,359,0.0,0.0,81,-99.99,,,-99.99,VWS V14.01,2013-03-27 00:22:00,
2013-03-26 20:27:00,35.1,30.0,29.99,West,267,0.0,3.4,82,-99.99,,,-99.99,VWS V14.01,2013-03-27 00:27:00,
2013-03-26 20:32:00,35.2,30.2,30.00,West,270,6.2,6.9,82,-99.99,,,-99.99,VWS V14.01,2013-03-27 00:32:00,
2013-03-26 20:37:00,35.2,30.1,30.00,WNW,283,3.5,4.3,82,-99.99,,,-99.99,VWS V14.01,2013-03-27 00:37:00,
2013-03-26 20:42:00,35.3,30.1,30.00,WNW,295,0.0,0.0,81,-99.99,,,-99.99,VWS V14.01,2013-03-27 00:42:00,
2013-03-26 20:47:00,35.3,30.1,30.00,NNW,343,0.0,0.0,81,-99.99,,,-99.99,VWS V14.01,2013-03-27 00:47:00,
2013-03-26 20:52:00,35.3,30.0,30.00,NNW,343,2.6,2.6,81,-99.99,,,-99.99,VWS V14.01,2013-03-27 00:52:00,
2013-03-26 20:57:00,35.3,30.0,30.00,NNW,329,0.0,2.1,81,-99.99,,,-99.99,VWS V14.01,2013-03-27 00:57:00,
2013-03-26 21:02:00,35.4,29.9,30.00,NW,326,0.0,0.0,80,-99.99,,,-99.99,VWS V14.01,2013-03-27 01:02:00,
2013-03-26 21:07:00,35.4,29.9,30.00,NW,326,0.0,0.0,80,-99.99,,,-99.99,VWS V14.01,2013-03-27 01:07:00,
2013-03-26 21:12:00,35.4,29.9,30.00,NW,326,0.0,0.0,80,-99.99,,,-99.99,VWS V14.01,2013-03-27 01:12:00,
2013-03-26 21:17:00,35.5,30.1,30.00,NW,326,0.0,0.0,80,-99.99,,,-99.99,VWS V14.01,2013-03-27 01:17:00,
2013-03-26 21:22:00,35.3,29.9,30.00,NW,326,0.0,0.0,81,-99.99,,,-99.99,VWS V14.01,2013-03-27 01:22:00,
2013-03-26 21:27:00,35.4,30.1,30.01,NW,326,0.0,0.0,81,-99.99,,,-99.99,VWS V14.01,2013-03-27 01:27:00,
2013-03-26 21:32:00,35.4,30.0,30.01,NW,326,0.0,0.0,80,-99.99,,,-99.99,VWS V14.01,2013-03-27 01:32:00,
2013-03-26 21:37:00,35.4,30.2,30.01,NW,326,0.0,0.0,81,-99.99,,,-99.99,VWS V14.01,2013-03-27 01:37:00,
2013-03-26 21:42:00,35.3,29.9,30.02,NW,304,0.0,0.0,80,-99.99,,,-99.99,VWS V14.01,2013-03-27 01:42:00,
2013-03-26 21:47:00,35.2,29.5,30.02,West,260,0.0,0.0,80,-99.99,,,-99.99,VWS V14.01,2013-03-27 01:47:00,
2013-03-26 21:52:00,35.2,29.7,30.02,West,260,0.0,0.0,80,-99.99,,,-99.99,VWS V14.01,2013-03-27 01:52:00,
2013-03-26 21:57:00,35.3,30.1,30.02,West,260,0.0,0.0,81,-99.99,,,-99.99,VWS V14.01,2013-03-27 01:57:00,
2013-03-26 22:02:00,35.2,30.2,30.02,West,260,0.0,0.0,82,-99.99,,,-99.99,VWS V14.01,2013-03-27 02:02:00,